Meteo Giornale » Osservazioni meteo Italia » Genova-Sestri

ore: 05:20 - Osservazioni Meteo Genova-Sestri
Lat. 44° 25' N Lon. 8° 51' E Alt. 2 metri s.l.m.

nuvoloso Europe/Rome

25 °C

Nuvoloso

Temp. 24 Ore

25 °C

26 °C

Sud/Sud-Est

13 Km/h

Dew point 24 °C

Umidità 94 %

Visibilità  10 Km

Il sole sorge alle ore 06:05

Il sole tramonta alle ore 20:56

Data e Ora Cielo e Fenomeni T °C DP °C Um. % Pres. hPa Vis. km Vento km/h
Oggi h: 05:20 nuvoloso Nuvoloso 25 24 94 1013 10 S/SE 13
Oggi h: 04:50 nuvoloso Nuvoloso 25 25 100 1014 10 S/SE 13
Oggi h: 04:20 molto_nuvoloso Molto Nuvoloso 25 25 100 1014 10 SE 14.8
Oggi h: 03:50 molto_nuvoloso Molto Nuvoloso 25 25 100 1014 10 SE 13
Oggi h: 03:20 molto_nuvoloso Molto Nuvoloso 25 25 100 1014 10 S/SE 11.1
Oggi h: 02:50 molto_nuvoloso Molto Nuvoloso 25 24 94 1014 10 S/SE 11.1
Oggi h: 02:20 molto_nuvoloso Molto Nuvoloso 25 24 94 1014 10 S 9.3
Oggi h: 01:50 molto_nuvoloso Molto Nuvoloso 25 25 100 1014 10 S 11.1
Oggi h: 01:20 molto_nuvoloso Molto Nuvoloso 25 25 100 1015 10 S 11.1
Oggi h: 00:50 nuvoloso Nuvoloso 25 24 94 1015 10 S 13
Oggi h: 00:20 nuvoloso Nuvoloso 25 25 100 1015 10 S 11.1
Ieri h: 23:50 nuvoloso Nuvoloso 25 24 94 1015 10 S 9.3
Ieri h: 23:20 molto_nuvoloso Molto Nuvoloso 25 25 100 1014 10 S 11.1
Ieri h: 22:50 molto_nuvoloso Molto Nuvoloso 25 25 100 1014 10 S/SE 11.1
Ieri h: 22:20 molto_nuvoloso Molto Nuvoloso 25 25 100 1014 10 S/SE 14.8
Ieri h: 21:50 nuvoloso Nuvoloso 25 25 100 1014 10 SE 14.8
Ieri h: 21:20 nuvoloso Nuvoloso 25 25 100 1014 10 SE 18.5
Ieri h: 20:50 molto_nuvoloso Molto Nuvoloso 25 25 100 1013 7 SE 16.7
Ieri h: 20:20 nuvoloso Nuvoloso 25 25 100 1014 8 SE 13
Ieri h: 19:50 nuvoloso Nuvoloso 25 25 100 1014 8 SE 16.7
Ieri h: 19:20 nuvoloso Nuvoloso 26 26 100 1013 8 SE 25.9
Ieri h: 18:50 poco_nuvoloso Poco Nuvoloso 26 26 100 1013 9 E/SE 33.3
Ieri h: 18:20 poco_nuvoloso Poco Nuvoloso 26 26 100 1013 9 SE 31.5
Ieri h: 17:50 nuvoloso Nuvoloso 26 25 94 1013 8 SE 31.5
Ieri h: 17:20 nuvoloso Nuvoloso 26 25 94 1013 9 SE 31.5
Ieri h: 16:50 molto_nuvoloso Molto Nuvoloso 26 24 88 1014 10 SE 27.8
Ieri h: 16:20 nuvoloso Nuvoloso 26 24 88 1014 10 SE 16.7
Ieri h: 15:50 molto_nuvoloso Molto Nuvoloso 26 22 78 1014 10 E/SE 16.7
Ieri h: 15:20 molto_nuvoloso Molto Nuvoloso 26 23 83 1014 10 E/SE 16.7
Ieri h: 14:50 molto_nuvoloso Molto Nuvoloso 26 24 88 1014 10 SE 24
Ieri h: 14:20 molto_nuvoloso Molto Nuvoloso 26 23 83 1015 10 SE 24
Ieri h: 13:50 molto_nuvoloso Molto Nuvoloso 26 23 83 1014 10 SE 22.2
Ieri h: 13:20 molto_nuvoloso Molto Nuvoloso 26 23 83 1015 10 S/SE 14.8
Ieri h: 12:50 molto_nuvoloso Molto Nuvoloso 26 23 83 1015 10 SE 14.8
Ieri h: 12:20 molto_nuvoloso Molto Nuvoloso 26 22 78 1015 10 SE 14.8
Ieri h: 11:50 molto_nuvoloso Molto Nuvoloso 26 24 88 1014 10 S/SE 11.1
Ieri h: 11:20 nuvoloso Nuvoloso 26 23 83 1014 10 SE 22.2
Ieri h: 10:50 molto_nuvoloso Molto Nuvoloso 26 23 83 1014 10 SE 24
Ieri h: 10:20 nuvoloso Nuvoloso 26 23 83 1014 10 SE 29.6
Ieri h: 09:50 nuvoloso Nuvoloso 26 23 83 1014 10 SE 25.9
Ieri h: 09:20 nuvoloso Nuvoloso 26 24 88 1014 10 SE 20.3
Ieri h: 08:50 nuvoloso Nuvoloso 26 25 94 1014 10 SE 20.3
Ieri h: 08:20 nuvoloso Nuvoloso 26 24 88 1014 10 SE 27.8
Ieri h: 07:50 nuvoloso Nuvoloso 25 25 100 1014 10 SE 31.5
Ieri h: 07:20 molto_nuvoloso Molto Nuvoloso 25 24 94 1014 10 E 16.7
Ieri h: 06:50 molto_nuvoloso Molto Nuvoloso 25 25 100 1014 10 E/SE 25.9
Ieri h: 06:20 molto_nuvoloso Molto Nuvoloso 25 25 100 1014 10 SE 31.5
Ieri h: 05:50 nuvoloso_temporali Temporale nelle Vicinanze 25 23 88 1014 10 E/NE 9.3